Other Public Products
Issued by NWS Grand Forks, ND

Home | Current Version | Previous Version | Graphics & Text | Print | Product List | Glossary On
Versions: 1 2 3 4 5 6 7 8 9 10 11 12 13 14 15 16 17 18 19 20 21 22 23 24 25 26 27 28 29 30 31 32 33 34 35 36 37 38 39 40 41 42 43 44 45 46 47 48 49 50
428
FPUS83 KFGF 222110
OPUFGF
PRAIRIE TO PINES WEATHER ROUNDUP
NATIONAL WEATHER SERVICE EASTERN NORTH DAKOTA/GRAND FORKS ND
400 PM CDT TUE AUG 22 2017

 **SATELLITE DATA USED TO AUGMENT SKY COVER AT AUTOMATED STATIONS**
 *****  WEATHER ACROSS EASTERN NORTH DAKOTA  *****

CITY           SKY/WX    TMP DP  RH WIND       PRES   REMARKS
GRAND FORKS    FAIR      77  45  32 N20G28    30.05S
GRAND FORKS AF FAIR      76  40  27 N12G21    30.06F
GRAND CITY NWS NOT AVBL
BUXTON         NOT AVBL
DEVILS LAKE    FAIR      73  39  29 NW17G23   30.12S
FARGO          FAIR      77  43  29 NW20      30.07S
WAHPETON ARPT  FAIR      73  41  31 NW16      30.09F
$$

 *****  WEATHER ACROSS CENTRAL AND WESTERN NORTH DAKOTA  *****

CITY           SKY/WX    TMP DP  RH WIND       PRES   REMARKS
JAMESTOWN      FAIR      72  47  40 N12       30.13F
BISMARCK       FAIR      78  39  24 VRB7      30.16F
MINOT          FAIR      78  38  23 NW14      30.13F
MINOT AFB      FAIR      77  36  22 N8G17     30.11F
GARRISON         N/A     77  39  25 N12       30.14F
WILLISTON      FAIR      79  39  23 VRB5      30.14F
DICKINSON      FAIR      78  40  25 NE6       30.15F
HETTINGER      FAIR      80  39  23 VRB3      30.17F
$$

 *****  OTHER OBSERVATIONS NORTHEAST NORTH DAKOTA  *****

CITY           SKY/WX    TMP DP  RH WIND       PRES   REMARKS
WALHALLA       FAIR      73  70  88 N17G28    30.06F
LANGDON        FAIR      75  41  29 N17G28    30.09F
CAVALIER       FAIR      73  45  35 NW15G26   30.05F
GRAFTON        FAIR      73  45  35 N22G30    30.07S
CANDO          FAIR      75  43  31 NW14G24   30.13F
FORT TOTTEN      N/A     75  42  30 NW7       29.95S
ROLLA          FAIR      72  39  30 NW14G21   30.13S
RUGBY          FAIR      75  39  27 NW13G21   30.12S
 ***** THE ABOVE OBSERVATIONS ARE NON NWS ARE NOT QUALITY
        CONTROLLED AND MAY MIS-REPORT RAIN FOR SNOW...
$$

 *****  OTHER OBSERVATIONS SOUTHEAST NORTH DAKOTA *****

CITY           SKY/WX    TMP DP  RH WIND       PRES   REMARKS
COOPERSTOWN    FAIR      73  45  35 NW13G22   30.12S
VALLEY CITY      N/A     73  43  33 NW23      30.13F
OAKES          NOT AVBL
GWINNER        CLEAR     73  46  38 NW14G20   30.12F
SHEYENNE NWR     N/A     75  45  34 NW12      29.95S
BUFFALO        NOT AVBL
WYNDMERE       NOT AVBL
 ***** THE ABOVE OBSERVATIONS ARE NON NWS ARE NOT QUALITY
       CONTROLLED AND MAY MIS-REPORT RAIN FOR SNOW...
$$

  *****  WEATHER ACROSS NORTHERN MINNESOTA  *****

CITY           SKY/WX    TMP DP  RH WIND       PRES   REMARKS
FLAG ISLAND    FAIR      64  52  63 N14G22    29.99R
WARROAD        LGT RAIN  61  55  82 NW12G18   30.02R
ROSEAU         FAIR      68  55  64 N16G25    30.02R
HALLOCK        FAIR      75  41  29 NW25G32   30.02F
THF RVR FALLS  PTSUNNY   72  44  36 NW24G30   30.04S
HALSTAD        NOT AVBL
FOSSTON        FAIR      73  39  29 NW17G26   30.05S
BAUDETTE       FAIR      64  56  75 NW15G25   29.98R
WASKISH        PTSUNNY   61  59  94 N5        30.00R
CROOKSTON      FAIR      73  43  33 N18G29    30.05S
$$
  *****  WEATHER ACROSS CENTRAL AND WEST MINNESOTA  *****

CITY           SKY/WX    TMP DP  RH WIND       PRES   REMARKS
BEMIDJI        PTSUNNY   70  45  40 NW22G28   30.02S
PARK RAPIDS    PTSUNNY   73  43  33 NW20G32   30.04R
WADENA         FAIR      72  46  40 W14G21    30.05F
DETROIT LAKES  FAIR      72  41  33 NW22G29   30.07F
MOORHEAD       FAIR      75  41  29 NW17G26   30.08S
FERGUS FALLS   FAIR      72  46  40 NW17G28   30.08S
ELBOW LAKE     FAIR      70  47  44 W16       30.10F
MORRIS MN      FAIR      75  46  35 NW15G22   30.09F
STAPLES        FAIR      72  41  33 W16       30.05S
WHEATON        FAIR      73  43  33 W15G22    30.11F
$$
  *****  WEATHER ELSEWHERE ACROSS MINNESOTA  *****

CITY           SKY/WX    TMP DP  RH WIND       PRES   REMARKS
DULUTH         PTSUNNY   65  51  60 W14G25    29.95R
INTRNTL FALLS  PTSUNNY   64  54  69 NW13G20   29.93S
ELY            PTSUNNY   61  50  67 W14G25    29.90F
CLOQUET        PTSUNNY   70  46  43 W17       29.96S
BRAINERD       PTSUNNY   69  45  41 NW13G24   30.02F
HIBBING        CLOUDY    61  57  87 NW9       29.96S
ALEXANDRIA     FAIR      72  46  39 NW18G29   30.10F
SAINT CLOUD    FAIR      73  48  41 NW17G25   30.04F
MINNEAPOLIS    FAIR      74  49  41 NW18G25   30.03S
$$

  *****  WEATHER ACROSS SOUTH DAKOTA  *****

CITY           SKY/WX    TMP DP  RH WIND       PRES   REMARKS
SIOUX FALLS    FAIR      76  48  37 N14       30.16F
BROOKINGS      FAIR      72  48  42 N14       30.16F
WATERTOWN      FAIR      72  48  42 NW14      30.14F
HURON          FAIR      77  44  30 NW15      30.15F
SISSETON         N/A     75  49  39 NW17      30.10F
ABERDEEN       FAIR      77  43  29 NW14      30.14F
MITCHELL       FAIR      77  44  30 NW8       30.16F
PIERRE         FAIR      79  45  29 VRB5      30.15F
MOBRIDGE       FAIR      78  48  34 CALM      30.14F
RAPID CITY     FAIR      84  46  26 S13       30.15F
$$

  *****  SOME WEATHER IN NEARBY STATES *****

CITY           SKY/WX    TMP DP  RH WIND       PRES   REMARKS
GLASGOW MT     FAIR      83  34  17 S7        30.10F
GREAT FALLS MT FAIR      87  29  12 SW8       30.10F
CHEYENNE WY    FAIR      75  54  47 S16G25    30.31F
SCOTTSBLUFF NE FAIR      83  49  30 S14G21    30.20F
OMAHA NE       FAIR      78  49  35 N13       30.15F
DES MOINES IA  FAIR      77  47  34 NW12G20   30.10S
DAVENPORT IA   FAIR      76  54  46 NW15G24   30.02F
CHICAGO IL     FAIR      81  53  37 NW17G26   29.91R
EAU CLAIRE WI  PTSUNNY   72  48  42 NW21G28   29.97F
LA CROSSE WI   FAIR      78  50  37 NW18G28   30.00R
$$

  *****  SOME NATIONAL WEATHER *****

CITY           SKY/WX    TMP DP  RH WIND       PRES   REMARKS
LA GUARDIA NY  FAIR      88  76  67 S15       29.81F HX  99
RALEIGH NC     FAIR      92  71  50 S10       29.96F HX  98
ATLANTA GA     FAIR      92  67  43 SW9       30.02F HX  95
NEW ORLEANS LA PTSUNNY   86  76  71 SE7       30.02F HX  96
OKLAHOMA CITY  PTSUNNY   91  70  49 CALM      30.02F HX  96
ALBUQUERQUE NM FAIR      85  52  32 VRB5      30.25F
SALT LAKE CITY PTSUNNY   89  46  22 N12       30.15F
LOS ANGELES CA FAIR      75  64  68 W16       29.99F
BOISE ID       FAIR      91  43  18 N6        30.07F
SEATTLE WA     FAIR      82  53  36 W6        30.02S
$$

*** WEATHER ACROSS MANITOBA...SASKATCHEWAN AND ONTARIO ***
                ***ONTARIO***

CITY           SKY/WX    TMP DP  RH WIND       PRES   REMARKS
GERALDTON      PTSUNNY   61  50  67 NW13G24   29.67S
THUNDER BAY    LGT RAIN  64  50  59 NW15G28   29.79R
SIOUX LOOKOUT  PTSUNNY   64  52  63 NW13G23   29.86R
TORONTO        PTSUNNY   77  64  65 W22G29    29.64S
BIG TROUT LK   CLOUDY    57  41  54 N10G21    29.88R
PICKLE LAKE    PTSUNNY   55  52  88 N10G22    29.83R
DRYDEN         PTSUNNY   64  50  59 NW9G24    29.90S
KENORA         PTSUNNY   61  50  67 NW12      29.98R
$$
                *** MANITOBA***

CITY           SKY/WX    TMP DP  RH WIND       PRES   REMARKS
BRANDON        PTSUNNY   77  39  25 N12G23    30.09F
DAUPHIN        PTSUNNY   75  45  33 N10G17    30.07F
ISLAND LAKE    PTSUNNY   54  45  71 N8        30.04R
PILOT MOUND      N/A     73  39  29 NW14G22     N/A
THE PAS        PTSUNNY   72  46  40 VRB2      30.05S
THOMPSON       PTSUNNY   59  46  63 VRB6      30.08F
WINNIPEG       PTSUNNY   70  52  52 N12G21    30.04S
CHURCHILL      PTSUNNY   52  43  71 N8        30.10S
GILLAM         SUNNY     59  39  47 N8        30.07F
$$
                ***SASKATCHEWAN***

CITY           SKY/WX    TMP DP  RH WIND       PRES   REMARKS
ESTEVAN        MOSUNNY   79  39  24 N13G20    30.13F
KINDERSLEY     MOSUNNY   79  45  29 S5        30.06F
LLOYDMINSTER   PTSUNNY   72  54  53 W7        30.04F
PRINCE ALBERT  PTSUNNY   70  50  49 SE6       30.07F
REGINA         PTSUNNY   79  39  24 VRB3      30.09F
YORKTON        CLOUDY    70  41  35 W8        30.11F
N. BATTLEFORD  SUNNY     73  54  49 W12       30.06F



USA.gov is the U.S. government's official web portal to all federal, state and local government web resources and services.